Volver al catálogo

KUIPER-00223

ActivoComunicacionesLEO
NORAD 67783·PAYLOAD·🇺🇸 United States

Lanzado Feb 12, 2026 desde Guiana Space Centre

Loading…

Próximos Pases (próximas 24 horas)

TLE

ActualizadoSource: CelesTrak SupGP

Época: Sep 14, 2026, 21:10 UTC

1 67783C 26030V   26257.88241898  .00004654  00000+0  60951-3 0  2571
2 67783  51.9003  76.4454 0000791 109.3760  19.6071 14.79910249    15

Sigue KUIPER-00223 en tiempo real con AllMySat

Download on the App Store